Location: Possagno
(45.8500°N, 11.8667°E)
Time: 01:05:58
(UTC+00:00)

Resurs 1-4 Rocket - Visible Passes

Search period start: 14 June 2021 00:00
Search period end: 24 June 2021 00:00
Orbit: 799 x 814 km, 98.6° (Epoch: 13 June)

Date Brightness Start Highest point End Pass type
(mag) Time Alt. Az. Time Alt. Az. Time Alt. Az.
14 Jun 2.7 00:23:54 10° NNE 00:29:04 48° E 00:31:49 25° SSE visible
14 Jun 3.5 02:04:14 10° N 02:08:36 26° WNW 02:12:54 10° WSW visible
14 Jun 3.4 23:59:38 10° NE 00:04:16 30° E 00:06:53 20° SE visible
15 Jun 2.8 01:39:14 10° N 01:44:10 41° WNW 01:47:58 16° SW visible
15 Jun 4.1 23:35:44 10° NE 23:39:23 19° E 23:41:58 14° SE visible
16 Jun 2.3 01:14:23 10° N 01:19:40 65° WNW 01:23:03 22° SSW visible
16 Jun 4.5 23:13:05 10° ENE 23:14:25 11° E 23:15:46 10° E visible
17 Jun 2.1 00:49:43 10° NNE 00:55:04 80° ESE 00:58:07 27° S visible
17 Jun 4.0 02:30:54 10° NNW 02:34:14 17° WNW 02:37:35 10° W visible
18 Jun 2.7 00:25:13 10° NNE 00:30:23 49° E 00:33:11 25° SSE visible
18 Jun 3.5 02:05:35 10° N 02:09:55 26° WNW 02:14:14 10° WSW visible
19 Jun 3.4 00:00:56 10° NNE 00:05:36 30° E 00:08:15 20° SE visible
19 Jun 2.9 01:40:34 10° N 01:45:30 40° WNW 01:49:20 16° SW visible
19 Jun 4.0 23:37:00 10° NE 23:40:44 19° E 23:43:19 14° SE visible
20 Jun 2.3 01:15:44 10° N 01:21:00 63° WNW 01:24:24 22° SSW visible
20 Jun 4.4 23:14:10 10° ENE 23:15:46 11° E 23:17:22 10° ESE visible
21 Jun 2.1 00:51:02 10° NNE 00:56:24 82° ESE 00:59:28 26° S visible
21 Jun 4.0 02:32:16 10° NNW 02:35:33 17° WNW 02:38:49 10° W visible
22 Jun 2.7 00:26:31 10° NNE 00:31:43 51° E 00:34:31 26° SSE visible
22 Jun 3.5 02:06:57 10° N 02:11:14 25° WNW 02:15:31 10° WSW visible
23 Jun 3.4 00:02:13 10° NNE 00:06:57 31° E 00:09:35 21° SE visible
23 Jun 2.9 01:41:54 10° N 01:46:49 39° WNW 01:50:39 16° SW visible
23 Jun 4.0 23:38:17 10° NE 23:42:05 20° E 23:44:38 14° SE visible
